Year,Month,Day,Hour,Minute,Value (Times are PST for temperature in C)
2015,10,16,00,00,8.30
2015,10,16,00,01,8.30
2015,10,16,00,02,8.30
2015,10,16,00,03,8.30
2015,10,16,00,04,8.30
2015,10,16,00,05,8.30
2015,10,16,00,06,8.30
2015,10,16,00,07,8.30
2015,10,16,00,08,8.30
2015,10,16,00,09,8.30
2015,10,16,00,10,8.30
2015,10,16,00,11,8.30
2015,10,16,00,12,8.20
2015,10,16,00,13,8.20
2015,10,16,00,14,8.20
2015,10,16,00,15,8.20
2015,10,16,00,16,8.20
2015,10,16,00,17,8.20
2015,10,16,00,18,8.20
2015,10,16,00,19,8.20
2015,10,16,00,20,8.20
2015,10,16,00,21,8.20
2015,10,16,00,22,8.20
2015,10,16,00,23,8.20
2015,10,16,00,24,8.20
2015,10,16,00,25,8.20
2015,10,16,00,26,8.20
2015,10,16,00,27,8.20
2015,10,16,00,28,8.10
2015,10,16,00,29,8.10
2015,10,16,00,30,8.10
2015,10,16,00,31,8.10
2015,10,16,00,32,8.10
2015,10,16,00,33,8.10
2015,10,16,00,34,8.10
2015,10,16,00,35,8.10
2015,10,16,00,36,8.10
2015,10,16,00,37,8.10
2015,10,16,00,38,8.10
2015,10,16,00,39,8.10
2015,10,16,00,40,8.10
2015,10,16,00,41,8.10
2015,10,16,00,42,8.10
2015,10,16,00,43,8.10
2015,10,16,00,44,8.10
2015,10,16,00,45,8.10
2015,10,16,00,46,8.10
2015,10,16,00,47,8.10
2015,10,16,00,48,8.20
2015,10,16,00,49,8.20
2015,10,16,00,50,8.20
2015,10,16,00,51,8.20
2015,10,16,00,52,8.30
2015,10,16,00,53,8.30
2015,10,16,00,54,8.30
2015,10,16,00,55,8.30
2015,10,16,00,56,8.30
2015,10,16,00,57,8.30
2015,10,16,00,58,8.30
2015,10,16,00,59,8.30
2015,10,16,01,00,8.30
2015,10,16,01,01,8.30
2015,10,16,01,02,8.30
2015,10,16,01,03,8.40
2015,10,16,01,04,8.40
2015,10,16,01,05,8.40
2015,10,16,01,06,8.40
2015,10,16,01,07,8.30
2015,10,16,01,08,8.30
2015,10,16,01,09,8.30
2015,10,16,01,10,8.30
2015,10,16,01,11,8.30
2015,10,16,01,12,8.30
2015,10,16,01,13,8.30
2015,10,16,01,14,8.30
2015,10,16,01,15,8.30
2015,10,16,01,16,8.30
2015,10,16,01,17,8.30
2015,10,16,01,18,8.30
2015,10,16,01,19,8.30
2015,10,16,01,20,8.30
2015,10,16,01,21,8.30
2015,10,16,01,22,8.30
2015,10,16,01,23,8.30
2015,10,16,01,24,8.30
2015,10,16,01,25,8.20
2015,10,16,01,26,8.20
2015,10,16,01,27,8.20
2015,10,16,01,28,8.20
2015,10,16,01,29,8.20
2015,10,16,01,30,8.20
2015,10,16,01,31,8.20
2015,10,16,01,32,8.20
2015,10,16,01,33,8.20
2015,10,16,01,34,8.20
2015,10,16,01,35,8.20
2015,10,16,01,36,8.20
2015,10,16,01,37,8.20
2015,10,16,01,38,8.20
2015,10,16,01,39,8.20
2015,10,16,01,40,8.20
2015,10,16,01,41,8.20
2015,10,16,01,42,8.20
2015,10,16,01,43,8.20
2015,10,16,01,44,8.20
2015,10,16,01,45,8.20
2015,10,16,01,46,8.20
2015,10,16,01,47,8.20
2015,10,16,01,48,8.20
2015,10,16,01,49,8.20
2015,10,16,01,50,8.20
2015,10,16,01,51,8.20
2015,10,16,01,52,8.20
2015,10,16,01,53,8.20
2015,10,16,01,54,8.30
2015,10,16,01,55,8.30
2015,10,16,01,56,8.30
2015,10,16,01,57,8.30
2015,10,16,01,58,8.20
2015,10,16,01,59,8.30
2015,10,16,02,00,8.20
2015,10,16,02,01,8.30
2015,10,16,02,02,8.30
2015,10,16,02,03,8.20
2015,10,16,02,04,8.30
2015,10,16,02,05,8.20
2015,10,16,02,06,8.20
2015,10,16,02,07,8.20
2015,10,16,02,08,8.30
2015,10,16,02,09,8.30
2015,10,16,02,10,8.30
2015,10,16,02,11,8.30
2015,10,16,02,12,8.30
2015,10,16,02,13,8.30
2015,10,16,02,14,8.30
2015,10,16,02,15,8.30
2015,10,16,02,16,8.30
2015,10,16,02,17,8.30
2015,10,16,02,18,8.30
2015,10,16,02,19,8.30
2015,10,16,02,20,8.30
2015,10,16,02,21,8.30
2015,10,16,02,22,8.30
2015,10,16,02,23,8.30
2015,10,16,02,24,8.30
2015,10,16,02,25,8.20
2015,10,16,02,26,8.20
2015,10,16,02,27,8.20
2015,10,16,02,28,8.20
2015,10,16,02,29,8.20
2015,10,16,02,30,8.20
2015,10,16,02,31,8.20
2015,10,16,02,32,8.20
2015,10,16,02,33,8.10
2015,10,16,02,34,8.10
2015,10,16,02,35,8.10
2015,10,16,02,36,8.10
2015,10,16,02,37,8.10
2015,10,16,02,38,8.10
2015,10,16,02,39,8.10
2015,10,16,02,40,8.00
2015,10,16,02,41,8.00
2015,10,16,02,42,8.00
2015,10,16,02,43,8.00
2015,10,16,02,44,8.00
2015,10,16,02,45,8.00
2015,10,16,02,46,7.90
2015,10,16,02,47,7.90
2015,10,16,02,48,7.90
2015,10,16,02,49,7.90
2015,10,16,02,50,7.90
2015,10,16,02,51,7.90
2015,10,16,02,52,7.90
2015,10,16,02,53,7.90
2015,10,16,02,54,7.90
2015,10,16,02,55,7.90
2015,10,16,02,56,8.00
2015,10,16,02,57,8.00
2015,10,16,02,58,8.10
2015,10,16,02,59,8.10
2015,10,16,03,00,8.20
2015,10,16,03,01,8.20
2015,10,16,03,02,8.30
2015,10,16,03,03,8.30
2015,10,16,03,04,8.40
2015,10,16,03,05,8.50
2015,10,16,03,06,8.50
2015,10,16,03,07,8.50
2015,10,16,03,08,8.60
2015,10,16,03,09,8.70
2015,10,16,03,10,8.70
2015,10,16,03,11,8.70
2015,10,16,03,12,8.80
2015,10,16,03,13,8.80
2015,10,16,03,14,8.80
2015,10,16,03,15,8.90
2015,10,16,03,16,8.90
2015,10,16,03,17,8.90
2015,10,16,03,18,8.90
2015,10,16,03,19,8.90
2015,10,16,03,20,9.00
2015,10,16,03,21,9.00
2015,10,16,03,22,9.00
2015,10,16,03,23,9.00
2015,10,16,03,24,9.00
2015,10,16,03,25,9.00
2015,10,16,03,26,9.00
2015,10,16,03,27,9.00
2015,10,16,03,28,9.00
2015,10,16,03,29,9.10
2015,10,16,03,30,9.00
2015,10,16,03,31,9.00
2015,10,16,03,32,9.00
2015,10,16,03,33,9.00
2015,10,16,03,34,9.00
2015,10,16,03,35,9.00
2015,10,16,03,36,8.90
2015,10,16,03,37,8.90
2015,10,16,03,38,8.90
2015,10,16,03,39,8.90
2015,10,16,03,40,8.80
2015,10,16,03,41,8.80
2015,10,16,03,42,8.80
2015,10,16,03,43,8.80
2015,10,16,03,44,8.70
2015,10,16,03,45,8.70
2015,10,16,03,46,8.70
2015,10,16,03,47,8.70
2015,10,16,03,48,8.70
2015,10,16,03,49,8.60
2015,10,16,03,50,8.60
2015,10,16,03,51,8.50
2015,10,16,03,52,8.50
2015,10,16,03,53,8.40
2015,10,16,03,54,8.40
2015,10,16,03,55,8.30
2015,10,16,03,56,8.20
2015,10,16,03,57,8.20
2015,10,16,03,58,8.10
2015,10,16,03,59,8.10
2015,10,16,04,00,8.00
2015,10,16,04,01,7.90
2015,10,16,04,02,7.90
2015,10,16,04,03,7.90
2015,10,16,04,04,7.80
2015,10,16,04,05,7.80
2015,10,16,04,06,7.80
2015,10,16,04,07,7.80
2015,10,16,04,08,7.80
2015,10,16,04,09,7.70
2015,10,16,04,10,7.70
2015,10,16,04,11,7.70
2015,10,16,04,12,7.70
2015,10,16,04,13,7.70
2015,10,16,04,14,7.70
2015,10,16,04,15,7.70
2015,10,16,04,16,7.70
2015,10,16,04,17,7.70
2015,10,16,04,18,7.70
2015,10,16,04,19,7.70
2015,10,16,04,20,7.70
2015,10,16,04,21,7.70
2015,10,16,04,22,7.70
2015,10,16,04,23,7.70
2015,10,16,04,24,7.70
2015,10,16,04,25,7.70
2015,10,16,04,26,7.70
2015,10,16,04,27,7.70
2015,10,16,04,28,7.70
2015,10,16,04,29,7.70
2015,10,16,04,30,7.70
2015,10,16,04,31,7.60
2015,10,16,04,32,7.60
2015,10,16,04,33,7.60
2015,10,16,04,34,7.60
2015,10,16,04,35,7.60
2015,10,16,04,36,7.60
2015,10,16,04,37,7.60
2015,10,16,04,38,7.60
2015,10,16,04,39,7.60
2015,10,16,04,40,7.60
2015,10,16,04,41,7.60
2015,10,16,04,42,7.60
2015,10,16,04,43,7.60
2015,10,16,04,44,7.60
2015,10,16,04,45,7.60
2015,10,16,04,46,7.50
2015,10,16,04,47,7.50
2015,10,16,04,48,7.50
2015,10,16,04,49,7.50
2015,10,16,04,50,7.50
2015,10,16,04,51,7.50
2015,10,16,04,52,7.50
2015,10,16,04,53,7.50
2015,10,16,04,54,7.50
2015,10,16,04,55,7.50
2015,10,16,04,56,7.60
2015,10,16,04,57,7.60
2015,10,16,04,58,7.60
2015,10,16,04,59,7.60
2015,10,16,05,00,7.60
2015,10,16,05,01,7.60
2015,10,16,05,02,7.70
2015,10,16,05,03,7.70
2015,10,16,05,04,7.70
2015,10,16,05,05,7.70
2015,10,16,05,06,7.80
2015,10,16,05,07,7.80
2015,10,16,05,08,7.80
2015,10,16,05,09,7.80
2015,10,16,05,10,7.80
2015,10,16,05,11,7.90
2015,10,16,05,12,7.90
2015,10,16,05,13,7.90
2015,10,16,05,14,7.90
2015,10,16,05,15,8.00
2015,10,16,05,16,8.00
2015,10,16,05,17,8.00
2015,10,16,05,18,8.00
2015,10,16,05,19,8.10
2015,10,16,05,20,8.10
2015,10,16,05,21,8.10
2015,10,16,05,22,8.10
2015,10,16,05,23,8.10
2015,10,16,05,24,8.10
2015,10,16,05,25,8.10
2015,10,16,05,26,8.10
2015,10,16,05,27,8.10
2015,10,16,05,28,8.10
2015,10,16,05,29,8.10
2015,10,16,05,30,8.10
2015,10,16,05,31,8.10
2015,10,16,05,32,8.10
2015,10,16,05,33,8.10
2015,10,16,05,34,8.10
2015,10,16,05,35,8.00
2015,10,16,05,36,8.00
2015,10,16,05,37,8.00
2015,10,16,05,38,8.00
2015,10,16,05,39,8.00
2015,10,16,05,40,7.90
2015,10,16,05,41,7.90
2015,10,16,05,42,7.90
2015,10,16,05,43,7.80
2015,10,16,05,44,7.80
2015,10,16,05,45,7.80
2015,10,16,05,46,7.80
2015,10,16,05,47,7.70
2015,10,16,05,48,7.70
2015,10,16,05,49,7.70
2015,10,16,05,50,7.70
2015,10,16,05,51,7.70
2015,10,16,05,52,7.70
2015,10,16,05,53,7.60
2015,10,16,05,54,7.60
2015,10,16,05,55,7.60
2015,10,16,05,56,7.60
2015,10,16,05,57,7.60
2015,10,16,05,58,7.50
2015,10,16,05,59,7.50
2015,10,16,06,00,7.50
2015,10,16,06,01,7.50
2015,10,16,06,02,7.40
2015,10,16,06,03,7.40
2015,10,16,06,04,7.40
2015,10,16,06,05,7.40
2015,10,16,06,06,7.30
2015,10,16,06,07,7.30
2015,10,16,06,08,7.30
2015,10,16,06,09,7.30
2015,10,16,06,10,7.30
2015,10,16,06,11,7.30
2015,10,16,06,12,7.30
2015,10,16,06,13,7.30
2015,10,16,06,14,7.20
2015,10,16,06,15,7.20
2015,10,16,06,16,7.20
2015,10,16,06,17,7.20
2015,10,16,06,18,7.20
2015,10,16,06,19,7.20
2015,10,16,06,20,7.20
2015,10,16,06,21,7.10
2015,10,16,06,22,7.10
2015,10,16,06,23,7.10
2015,10,16,06,24,7.10
2015,10,16,06,25,7.10
2015,10,16,06,26,7.10
2015,10,16,06,27,7.10
2015,10,16,06,28,7.00
2015,10,16,06,29,7.00
2015,10,16,06,30,7.00
2015,10,16,06,31,7.00
2015,10,16,06,32,6.90
2015,10,16,06,33,6.90
2015,10,16,06,34,6.90
2015,10,16,06,35,6.90
2015,10,16,06,36,6.90
2015,10,16,06,37,6.80
2015,10,16,06,38,6.80
2015,10,16,06,39,6.80
2015,10,16,06,40,6.80
2015,10,16,06,41,6.80
2015,10,16,06,42,6.80
2015,10,16,06,43,6.80
2015,10,16,06,44,6.80
2015,10,16,06,45,6.80
2015,10,16,06,46,6.80
2015,10,16,06,47,6.80
2015,10,16,06,48,6.80
2015,10,16,06,49,6.80
2015,10,16,06,50,6.80
2015,10,16,06,51,6.80
2015,10,16,06,52,6.80
2015,10,16,06,53,6.80
2015,10,16,06,54,6.80
2015,10,16,06,55,6.80
2015,10,16,06,56,6.80
2015,10,16,06,57,6.80
2015,10,16,06,58,6.80
2015,10,16,06,59,6.80
2015,10,16,07,00,6.80
2015,10,16,07,01,6.80
2015,10,16,07,02,6.80
2015,10,16,07,03,6.80
2015,10,16,07,04,6.80
2015,10,16,07,05,6.80
2015,10,16,07,06,6.80
2015,10,16,07,07,6.80
2015,10,16,07,08,6.80
2015,10,16,07,09,6.70
2015,10,16,07,10,6.70
2015,10,16,07,11,6.70
2015,10,16,07,12,6.70
2015,10,16,07,13,6.70
2015,10,16,07,14,6.80
2015,10,16,07,15,6.80
2015,10,16,07,16,6.70
2015,10,16,07,17,6.80
2015,10,16,07,18,6.70
2015,10,16,07,19,6.80
2015,10,16,07,20,6.70
2015,10,16,07,21,6.70
2015,10,16,07,22,6.70
2015,10,16,07,23,6.70
2015,10,16,07,24,6.70
2015,10,16,07,25,6.70
2015,10,16,07,26,6.70
2015,10,16,07,27,6.70
2015,10,16,07,28,6.70
2015,10,16,07,29,6.80
2015,10,16,07,30,6.80
2015,10,16,07,31,6.80
2015,10,16,07,32,6.80
2015,10,16,07,33,6.80
2015,10,16,07,34,6.80
2015,10,16,07,35,6.80
2015,10,16,07,36,6.80
2015,10,16,07,37,6.80
2015,10,16,07,38,6.80
2015,10,16,07,39,6.80
2015,10,16,07,40,6.80
2015,10,16,07,41,6.80
2015,10,16,07,42,6.80
2015,10,16,07,43,6.80
2015,10,16,07,44,6.80
2015,10,16,07,45,6.80
2015,10,16,07,46,6.80
2015,10,16,07,47,6.90
2015,10,16,07,48,6.90
2015,10,16,07,49,6.90
2015,10,16,07,50,6.90
2015,10,16,07,51,7.00
2015,10,16,07,52,7.00
2015,10,16,07,53,7.00
2015,10,16,07,54,7.10
2015,10,16,07,55,7.10
2015,10,16,07,56,7.10
2015,10,16,07,57,7.10
2015,10,16,07,58,7.10
2015,10,16,07,59,7.10
2015,10,16,08,00,7.10
2015,10,16,08,01,7.10
2015,10,16,08,02,7.10
2015,10,16,08,03,7.20
2015,10,16,08,04,7.20
2015,10,16,08,05,7.20
2015,10,16,08,06,7.20
2015,10,16,08,07,7.20
2015,10,16,08,08,7.20
2015,10,16,08,09,7.20
2015,10,16,08,10,7.20
2015,10,16,08,11,7.20
2015,10,16,08,12,7.20
2015,10,16,08,13,7.20
2015,10,16,08,14,7.20
2015,10,16,08,15,7.20
2015,10,16,08,16,7.20
2015,10,16,08,17,7.20
2015,10,16,08,18,7.20
2015,10,16,08,19,7.20
2015,10,16,08,20,7.20
2015,10,16,08,21,7.20
2015,10,16,08,22,7.20
2015,10,16,08,23,7.20
2015,10,16,08,24,7.20
2015,10,16,08,25,7.20
2015,10,16,08,26,7.30
2015,10,16,08,27,7.30
2015,10,16,08,28,7.30
2015,10,16,08,29,7.30
2015,10,16,08,30,7.30
2015,10,16,08,31,7.30
2015,10,16,08,32,7.30
2015,10,16,08,33,7.40
2015,10,16,08,34,7.40
2015,10,16,08,35,7.40
2015,10,16,08,36,7.40
2015,10,16,08,37,7.50
2015,10,16,08,38,7.50
2015,10,16,08,39,7.60
2015,10,16,08,40,7.60
2015,10,16,08,41,7.70
2015,10,16,08,42,7.70
2015,10,16,08,43,7.70
2015,10,16,08,44,7.80
2015,10,16,08,45,7.90
2015,10,16,08,46,7.90
2015,10,16,08,47,8.00
2015,10,16,08,48,8.10
2015,10,16,08,49,8.20
2015,10,16,08,50,8.20
2015,10,16,08,51,8.30
2015,10,16,08,52,8.30
2015,10,16,08,53,8.40
2015,10,16,08,54,8.40
2015,10,16,08,55,8.50
2015,10,16,08,56,8.60
2015,10,16,08,57,8.60
2015,10,16,08,58,8.70
2015,10,16,08,59,8.70
2015,10,16,09,00,8.80
2015,10,16,09,01,8.80
2015,10,16,09,02,8.90
2015,10,16,09,03,8.90
2015,10,16,09,04,9.00
2015,10,16,09,05,9.00
2015,10,16,09,06,9.10
2015,10,16,09,07,9.10
2015,10,16,09,08,9.20
2015,10,16,09,09,9.20
2015,10,16,09,10,9.30
2015,10,16,09,11,9.30
2015,10,16,09,12,9.40
2015,10,16,09,13,9.50
2015,10,16,09,14,9.50
2015,10,16,09,15,9.60
2015,10,16,09,16,9.70
2015,10,16,09,17,9.80
2015,10,16,09,18,9.80
2015,10,16,09,19,9.90
2015,10,16,09,20,10.00
2015,10,16,09,21,10.10
2015,10,16,09,22,10.10
2015,10,16,09,23,10.20
2015,10,16,09,24,10.20
2015,10,16,09,25,10.30
2015,10,16,09,26,10.40
2015,10,16,09,27,10.40
2015,10,16,09,28,10.50
2015,10,16,09,29,10.60
2015,10,16,09,30,10.70
2015,10,16,09,31,10.80
2015,10,16,09,32,10.80
2015,10,16,09,33,10.90
2015,10,16,09,34,11.00
2015,10,16,09,35,11.00
2015,10,16,09,36,11.10
2015,10,16,09,37,11.20
2015,10,16,09,38,11.30
2015,10,16,09,39,11.40
2015,10,16,09,40,11.50
2015,10,16,09,41,11.60
2015,10,16,09,42,11.70
2015,10,16,09,43,11.80
2015,10,16,09,44,11.90
2015,10,16,09,45,12.00
2015,10,16,09,46,12.20
2015,10,16,09,47,12.30
2015,10,16,09,48,12.40
2015,10,16,09,49,12.50
2015,10,16,09,50,12.60
2015,10,16,09,51,12.70
2015,10,16,09,52,12.80
2015,10,16,09,53,12.90
2015,10,16,09,54,13.10
2015,10,16,09,55,13.20
2015,10,16,09,56,13.30
2015,10,16,09,57,13.40
2015,10,16,09,58,13.60
2015,10,16,09,59,13.70
2015,10,16,10,00,13.80
2015,10,16,10,01,13.90
2015,10,16,10,02,14.00
2015,10,16,10,03,14.10
2015,10,16,10,04,14.20
2015,10,16,10,05,14.30
2015,10,16,10,06,14.40
2015,10,16,10,07,14.50
2015,10,16,10,08,14.60
2015,10,16,10,09,14.60
2015,10,16,10,10,14.70
2015,10,16,10,11,14.80
2015,10,16,10,12,14.90
2015,10,16,10,13,14.90
2015,10,16,10,14,15.00
2015,10,16,10,15,15.10
2015,10,16,10,16,15.20
2015,10,16,10,17,15.30
2015,10,16,10,18,15.30
2015,10,16,10,19,15.30
2015,10,16,10,20,15.40
2015,10,16,10,21,15.40
2015,10,16,10,22,15.40
2015,10,16,10,23,15.50
2015,10,16,10,24,15.50
2015,10,16,10,25,15.60
2015,10,16,10,26,15.60
2015,10,16,10,27,15.70
2015,10,16,10,28,15.70
2015,10,16,10,29,15.80
2015,10,16,10,30,15.90
2015,10,16,10,31,15.90
2015,10,16,10,32,16.00
2015,10,16,10,33,16.00
2015,10,16,10,34,16.10
2015,10,16,10,35,16.10
2015,10,16,10,36,16.20
2015,10,16,10,37,16.20
2015,10,16,10,38,16.20
2015,10,16,10,39,16.30
2015,10,16,10,40,16.30
2015,10,16,10,41,16.30
2015,10,16,10,42,16.40
2015,10,16,10,43,16.40
2015,10,16,10,44,16.50
2015,10,16,10,45,16.50
2015,10,16,10,46,16.60
2015,10,16,10,47,16.60
2015,10,16,10,48,16.60
2015,10,16,10,49,16.60
2015,10,16,10,50,16.60
2015,10,16,10,51,16.70
2015,10,16,10,52,16.70
2015,10,16,10,53,16.70
2015,10,16,10,54,16.80
2015,10,16,10,55,16.80
2015,10,16,10,56,16.80
2015,10,16,10,57,16.90
2015,10,16,10,58,16.90
2015,10,16,10,59,16.90
2015,10,16,11,00,17.00
2015,10,16,11,01,17.00
2015,10,16,11,02,17.10
2015,10,16,11,03,17.10
2015,10,16,11,04,17.20
2015,10,16,11,05,17.30
2015,10,16,11,06,17.30
2015,10,16,11,07,17.40
2015,10,16,11,08,17.50
2015,10,16,11,09,17.50
2015,10,16,11,10,17.60
2015,10,16,11,11,17.70
2015,10,16,11,12,17.70
2015,10,16,11,13,17.80
2015,10,16,11,14,17.80
2015,10,16,11,15,17.90
2015,10,16,11,16,17.90
2015,10,16,11,17,17.90
2015,10,16,11,18,17.90
2015,10,16,11,19,18.00
2015,10,16,11,20,18.00
2015,10,16,11,21,18.10
2015,10,16,11,22,18.10
2015,10,16,11,23,18.10
2015,10,16,11,24,18.10
2015,10,16,11,25,18.10
2015,10,16,11,26,18.10
2015,10,16,11,27,18.10
2015,10,16,11,28,18.10
2015,10,16,11,29,18.20
2015,10,16,11,30,18.30
2015,10,16,11,31,18.30
2015,10,16,11,32,18.40
2015,10,16,11,33,18.40
2015,10,16,11,34,18.50
2015,10,16,11,35,18.50
2015,10,16,11,36,18.60
2015,10,16,11,37,18.60
2015,10,16,11,38,18.60
2015,10,16,11,39,18.60
2015,10,16,11,40,18.60
2015,10,16,11,41,18.70
2015,10,16,11,42,18.70
2015,10,16,11,43,18.70
2015,10,16,11,44,18.80
2015,10,16,11,45,18.80
2015,10,16,11,46,18.80
2015,10,16,11,47,18.80
2015,10,16,11,48,18.80
2015,10,16,11,49,18.80
2015,10,16,11,50,18.90
2015,10,16,11,51,18.90
2015,10,16,11,52,18.90
2015,10,16,11,53,18.90
2015,10,16,11,54,19.00
2015,10,16,11,55,19.00
2015,10,16,11,56,19.10
2015,10,16,11,57,19.20
2015,10,16,11,58,19.30
2015,10,16,11,59,19.30
2015,10,16,12,00,19.40
2015,10,16,12,01,19.40
2015,10,16,12,02,19.50
2015,10,16,12,03,19.60
2015,10,16,12,04,19.60
2015,10,16,12,05,19.70
2015,10,16,12,06,19.70
2015,10,16,12,07,19.70
2015,10,16,12,08,19.80
2015,10,16,12,09,19.80
2015,10,16,12,10,19.80
2015,10,16,12,11,19.90
2015,10,16,12,12,20.00
2015,10,16,12,13,20.00
2015,10,16,12,14,20.10
2015,10,16,12,15,20.10
2015,10,16,12,16,20.20
2015,10,16,12,17,20.20
2015,10,16,12,18,20.30
2015,10,16,12,19,20.30
2015,10,16,12,20,20.40
2015,10,16,12,21,20.40
2015,10,16,12,22,20.40
2015,10,16,12,23,20.50
2015,10,16,12,24,20.50
2015,10,16,12,25,20.60
2015,10,16,12,26,20.60
2015,10,16,12,27,20.60
2015,10,16,12,28,20.70
2015,10,16,12,29,20.70
2015,10,16,12,30,20.70
2015,10,16,12,31,20.80
2015,10,16,12,32,20.80
2015,10,16,12,33,20.80
2015,10,16,12,34,20.90
2015,10,16,12,35,20.90
2015,10,16,12,36,21.00
2015,10,16,12,37,21.00
2015,10,16,12,38,21.00
2015,10,16,12,39,21.10
2015,10,16,12,40,21.10
2015,10,16,12,41,21.10
2015,10,16,12,42,21.10
2015,10,16,12,43,21.10
2015,10,16,12,44,21.10
2015,10,16,12,45,21.10
2015,10,16,12,46,21.10
2015,10,16,12,47,21.20
2015,10,16,12,48,21.20
2015,10,16,12,49,21.20
2015,10,16,12,50,21.20
2015,10,16,12,51,21.20
2015,10,16,12,52,21.20
2015,10,16,12,53,21.20
2015,10,16,12,54,21.20
2015,10,16,12,55,21.20
2015,10,16,12,56,21.10
2015,10,16,12,57,21.00
2015,10,16,12,58,21.00
2015,10,16,12,59,20.90
2015,10,16,13,00,20.80
2015,10,16,13,01,20.80
2015,10,16,13,02,20.70
2015,10,16,13,03,20.70
2015,10,16,13,04,20.70
2015,10,16,13,05,20.70
2015,10,16,13,06,20.70
2015,10,16,13,07,20.70
2015,10,16,13,08,20.70
2015,10,16,13,09,20.70
2015,10,16,13,10,20.70
2015,10,16,13,11,20.70
2015,10,16,13,12,20.70
2015,10,16,13,13,20.70
2015,10,16,13,14,20.70
2015,10,16,13,15,20.80
2015,10,16,13,16,20.80
2015,10,16,13,17,20.80
2015,10,16,13,18,20.80
2015,10,16,13,19,20.80
2015,10,16,13,20,20.80
2015,10,16,13,21,20.80
2015,10,16,13,22,20.80
2015,10,16,13,23,20.80
2015,10,16,13,24,20.80
2015,10,16,13,25,20.80
2015,10,16,13,26,20.80
2015,10,16,13,27,20.80
2015,10,16,13,28,20.90
2015,10,16,13,29,20.90
2015,10,16,13,30,20.90
2015,10,16,13,31,21.00
2015,10,16,13,32,21.00
2015,10,16,13,33,21.00
2015,10,16,13,34,21.00
2015,10,16,13,35,21.10
2015,10,16,13,36,21.10
2015,10,16,13,37,21.10
2015,10,16,13,38,21.20
2015,10,16,13,39,21.20
2015,10,16,13,40,21.20
2015,10,16,13,41,21.20
2015,10,16,13,42,21.20
2015,10,16,13,43,21.10
2015,10,16,13,44,21.10
2015,10,16,13,45,21.10
2015,10,16,13,46,21.10
2015,10,16,13,47,21.10
2015,10,16,13,48,21.10
2015,10,16,13,49,21.20
2015,10,16,13,50,21.20
2015,10,16,13,51,21.20
2015,10,16,13,52,21.30
2015,10,16,13,53,21.30
2015,10,16,13,54,21.30
2015,10,16,13,55,21.30
2015,10,16,13,56,21.40
2015,10,16,13,57,21.40
2015,10,16,13,58,21.40
2015,10,16,13,59,21.50
2015,10,16,14,00,21.50
2015,10,16,14,01,21.60
2015,10,16,14,02,21.70
2015,10,16,14,03,21.70
2015,10,16,14,04,21.70
2015,10,16,14,05,21.80
2015,10,16,14,06,21.80
2015,10,16,14,07,21.80
2015,10,16,14,08,21.80
2015,10,16,14,09,21.80
2015,10,16,14,10,21.90
2015,10,16,14,11,21.90
2015,10,16,14,12,21.90
2015,10,16,14,13,21.90
2015,10,16,14,14,21.90
2015,10,16,14,15,21.90
2015,10,16,14,16,21.90
2015,10,16,14,17,21.80
2015,10,16,14,18,21.90
2015,10,16,14,19,21.90
2015,10,16,14,20,21.90
2015,10,16,14,21,21.90
2015,10,16,14,22,22.00
2015,10,16,14,23,22.00
2015,10,16,14,24,22.00
2015,10,16,14,25,22.10
2015,10,16,14,26,22.10
2015,10,16,14,27,22.20
2015,10,16,14,28,22.20
2015,10,16,14,29,22.20
2015,10,16,14,30,22.20
2015,10,16,14,31,22.20
2015,10,16,14,32,22.20
2015,10,16,14,33,22.20
2015,10,16,14,34,22.20
2015,10,16,14,35,22.30
2015,10,16,14,36,22.30
2015,10,16,14,37,22.30
2015,10,16,14,38,22.40
2015,10,16,14,39,22.40
2015,10,16,14,40,22.40
2015,10,16,14,41,22.40
2015,10,16,14,42,22.40
2015,10,16,14,43,22.40
2015,10,16,14,44,22.40
2015,10,16,14,45,22.50
2015,10,16,14,46,22.50
2015,10,16,14,47,22.50
2015,10,16,14,48,22.50
2015,10,16,14,49,22.40
2015,10,16,14,50,22.40
2015,10,16,14,51,22.30
2015,10,16,14,52,22.30
2015,10,16,14,53,22.40
2015,10,16,14,54,22.40
2015,10,16,14,55,22.40
2015,10,16,14,56,22.40
2015,10,16,14,57,22.40
2015,10,16,14,58,22.40
2015,10,16,14,59,22.30
2015,10,16,15,00,22.30
2015,10,16,15,01,22.30
2015,10,16,15,02,22.30
2015,10,16,15,03,22.30
2015,10,16,15,04,22.30
2015,10,16,15,05,22.30
2015,10,16,15,06,22.30
2015,10,16,15,07,22.30
2015,10,16,15,08,22.30
2015,10,16,15,09,22.30
2015,10,16,15,10,22.20
2015,10,16,15,11,22.20
2015,10,16,15,12,22.20
2015,10,16,15,13,22.20
2015,10,16,15,14,22.20
2015,10,16,15,15,22.20
2015,10,16,15,16,22.10
2015,10,16,15,17,22.00
2015,10,16,15,18,22.00
2015,10,16,15,19,21.90
2015,10,16,15,20,21.80
2015,10,16,15,21,21.80
2015,10,16,15,22,21.70
2015,10,16,15,23,21.70
2015,10,16,15,24,21.70
2015,10,16,15,25,21.70
2015,10,16,15,26,21.70
2015,10,16,15,27,21.70
2015,10,16,15,28,21.70
2015,10,16,15,29,21.60
2015,10,16,15,30,21.60
2015,10,16,15,31,21.60
2015,10,16,15,32,21.60
2015,10,16,15,33,21.50
2015,10,16,15,34,21.40
2015,10,16,15,35,21.40
2015,10,16,15,36,21.40
2015,10,16,15,37,21.40
2015,10,16,15,38,21.30
2015,10,16,15,39,21.40
2015,10,16,15,40,21.40
2015,10,16,15,41,21.40
2015,10,16,15,42,21.40
2015,10,16,15,43,21.40
2015,10,16,15,44,21.40
2015,10,16,15,45,21.40
2015,10,16,15,46,21.40
2015,10,16,15,47,21.40
2015,10,16,15,48,21.50
2015,10,16,15,49,21.50
2015,10,16,15,50,21.50
2015,10,16,15,51,21.60
2015,10,16,15,52,21.60
2015,10,16,15,53,21.60
2015,10,16,15,54,21.60
2015,10,16,15,55,21.60
2015,10,16,15,56,21.60
2015,10,16,15,57,21.60
2015,10,16,15,58,21.60
2015,10,16,15,59,21.60
2015,10,16,16,00,21.60
2015,10,16,16,01,21.60
2015,10,16,16,02,21.60
2015,10,16,16,03,21.60
2015,10,16,16,04,21.60
2015,10,16,16,05,21.60
2015,10,16,16,06,21.60
2015,10,16,16,07,21.60
2015,10,16,16,08,21.60
2015,10,16,16,09,21.60
2015,10,16,16,10,21.60
2015,10,16,16,11,21.60
2015,10,16,16,12,21.60
2015,10,16,16,13,21.60
2015,10,16,16,14,21.70
2015,10,16,16,15,21.70
2015,10,16,16,16,21.70
2015,10,16,16,17,21.70
2015,10,16,16,18,21.80
2015,10,16,16,19,21.80
2015,10,16,16,20,21.80
2015,10,16,16,21,21.80
2015,10,16,16,22,21.80
2015,10,16,16,23,21.90
2015,10,16,16,24,21.90
2015,10,16,16,25,21.90
2015,10,16,16,26,22.00
2015,10,16,16,27,22.00
2015,10,16,16,28,22.00
2015,10,16,16,29,22.00
2015,10,16,16,30,22.00
2015,10,16,16,31,21.90
2015,10,16,16,32,21.90
2015,10,16,16,33,21.90
2015,10,16,16,34,22.00
2015,10,16,16,35,21.90
2015,10,16,16,36,21.90
2015,10,16,16,37,21.90
2015,10,16,16,38,21.90
2015,10,16,16,39,22.00
2015,10,16,16,40,22.00
2015,10,16,16,41,22.00
2015,10,16,16,42,22.00
2015,10,16,16,43,22.00
2015,10,16,16,44,22.00
2015,10,16,16,45,21.90
2015,10,16,16,46,21.90
2015,10,16,16,47,21.90
2015,10,16,16,48,21.90
2015,10,16,16,49,21.90
2015,10,16,16,50,21.90
2015,10,16,16,51,21.90
2015,10,16,16,52,21.80
2015,10,16,16,53,21.80
2015,10,16,16,54,21.80
2015,10,16,16,55,21.80
2015,10,16,16,56,21.90
2015,10,16,16,57,21.90
2015,10,16,16,58,21.90
2015,10,16,16,59,21.90
2015,10,16,17,00,21.90
2015,10,16,17,01,21.90
2015,10,16,17,02,21.90
2015,10,16,17,03,21.90
2015,10,16,17,04,21.80
2015,10,16,17,05,21.80
2015,10,16,17,06,21.80
2015,10,16,17,07,21.80
2015,10,16,17,08,21.70
2015,10,16,17,09,21.70
2015,10,16,17,10,21.70
2015,10,16,17,11,21.70
2015,10,16,17,12,21.70
2015,10,16,17,13,21.70
2015,10,16,17,14,21.70
2015,10,16,17,15,21.70
2015,10,16,17,16,21.70
2015,10,16,17,17,21.60
2015,10,16,17,18,21.60
2015,10,16,17,19,21.60
2015,10,16,17,20,21.50
2015,10,16,17,21,21.50
2015,10,16,17,22,21.40
2015,10,16,17,23,21.40
2015,10,16,17,24,21.30
2015,10,16,17,25,21.30
2015,10,16,17,26,21.30
2015,10,16,17,27,21.20
2015,10,16,17,28,21.20
2015,10,16,17,29,21.10
2015,10,16,17,30,21.10
2015,10,16,17,31,21.00
2015,10,16,17,32,21.00
2015,10,16,17,33,20.90
2015,10,16,17,34,20.90
2015,10,16,17,35,20.80
2015,10,16,17,36,20.70
2015,10,16,17,37,20.60
2015,10,16,17,38,20.50
2015,10,16,17,39,20.40
2015,10,16,17,40,20.30
2015,10,16,17,41,20.20
2015,10,16,17,42,20.10
2015,10,16,17,43,20.00